Regional Weather Roundup
Issued by NWS Newport/Morehead, NC

Current Version | Previous Version | Graphics & Text | Print | Product List | Glossary Off
Versions: 1 2 3 4 5 6 7 8 9 10 11 12 13 14 15 16 17 18 19 20 21 22 23 24 25 26 27 28 29 30 31 32 33 34 35 36 37 38 39 40 41 42 43 44 45 46 47 48 49 50

000
ASUS42 KMHX 191822
RWRMHX
WEATHER ROUNDUP FOR EASTERN NORTH CAROLINA
NATIONAL WEATHER SERVICE NEWPORT/MOREHEAD CITY NC
100 PM EST FRI DEC 19 2014

NOTE: "FAIR" INDICATES FEW OR NO CLOUDS BELOW 12,000 FEET
WITH NO SIGNIFICANT WEATHER AND/OR OBSTRUCTIONS TO VISIBILITY

NCZ015>017-031-032-045>047-102-103-191900-
NORTH COAST

CITY           SKY/WX    TMP DP  RH WIND       PRES   REMARKS
EDENTON        SUNNY     47  29  50 CALM      30.12F
ELIZABETH CITY SUNNY     50  27  40 VRB6      30.13F
KITTY HAWK     CLEAR     44  32  62 N7        30.11F
MANTEO         SUNNY     45  32  60 NE8       30.13F

$$

NCZ045>047-081-094-103-104-191900-
CENTRAL COAST

CITY           SKY/WX    TMP DP  RH WIND       PRES   REMARKS
FRISCO         SUNNY     48  35  60 N7        30.12F
SWANQUARTER      N/A     50 N/A N/A VRB2G9    30.09S

$$

NCZ095-097-098-100-101-191900-
SOUTHERN COAST

CITY           SKY/WX    TMP DP  RH WIND       PRES   REMARKS
BEAUFORT       SUNNY     53  28  38 NW7       30.11F
CEDAR ISLAND     N/A     46 N/A N/A NW6G12    30.15S
JACKSONVILLE   SUNNY     54  27  35 NW9       30.12F
PINEY ISLAND   CLEAR     51  34  52 N8        30.12F
WILMINGTON     SUNNY     57  23  26 N7        30.12F


$$

NCZ011>013-027>030-043-044-078>080-089-090>093-098-191900-
COASTAL PLAIN

CITY           SKY/WX    TMP DP  RH WIND       PRES   REMARKS
AHOSKIE        SUNNY     44  26  50 N5        30.13F
CLINTON        SUNNY     53  30  41 NW5       30.13S
ELIZABETHTOWN  SUNNY     55  25  32 CALM      30.12F
GOLDSBORO      SUNNY     50  31  49 VRB2      30.11F
GREENVILLE     SUNNY     46  30  53 N6        30.15F
HAVELOCK       MOSUNNY   53  27  36 N8        30.13F
KENANSVILLE    SUNNY     52  26  36 NW6       30.13S
KINSTON        SUNNY     50  28  43 N8        30.14F
NEW BERN       SUNNY     54  29  38 N6        30.13F
RICHLANDS      SUNNY     54  27  35 NW6       30.13S
ROCKY MOUNT    SUNNY     48  26  42 N5        30.14F
WASHINGTON     SUNNY     48  29  47 N5        30.13F
WHITEVILLE     SUNNY     55  23  29 W5        30.13S

$$

AMZ130-135-150-152-154-156-158-170-250-252-270-ANZ085-086-088-633-658-670-191900-
MARINE OBSERVATIONS

STATION/POSITION TIME  TEMP    WIND        PRES    WAVE   SWELL
                       AIR SEA DIR/SP/G            HT/PER HT/PER
                 (UTC) (F)     (DEG/KT/KT) (MB)    (FT/S) (FT/S)
CHESAPEAKE LIGHT 1800   39     340/ 14/ 17 1020.5
64 E VA BEACH    1800   42 55  330/ 16/ 19 1019.2    3/ 5
DUCK             1800   41 47   10/ 11/ 13 1019.1
2 E DUCK         1800      48                N/A     3/ 5
10 NE DUCK       1800      51                N/A     3/ 5
OREGON INLET     1800   44 50  350/  8/ 13 1020.1
13E OREGON INLT  1800      53                N/A     3/ 5   2/11
HATTERAS CG      1800   45 53   10/  9/ 12 1020.2
DIAMOND BUOY     1700   49                 1020.4    2/ 8
17 S OCRACOKE    NOT AVBL
CAPE LOOKOUT     1800   51      20/  6/  8 1019.5
BEAUFORT LAB     1800   51 52  350/  6/ 10 1018.7
30 SE NEW RIVER  1800   50 61  360/ 10/ 10 1020.3    2/ 8   2/ 8
5 SE WRIGHTSVLE  NOT AVBL
225 S CAPE HAT   1704   67 72  360/  8/ 12 1018.4    3/ 9   3/ 9
41 SE CHARLESTON 1800   61 67   30/  4/  8 1019.1    1/10   2/10

$$


USA.gov is the U.S. government's official web portal to all federal, state and local government web resources and services.